Location: Choisy
(48.7685°N, 2.4187°E)
Time: 10:45:02
(UTC+00:00)

ATLAS 3B R/B - Pass Details

Date: 04 December 2023
Orbit: 947 x 1247 km, 63.8° (Epoch: 10 February)

Event Time Altitude Azimuth Distance (km) Brightness Sun altitude
Exits shadow 03:54:56 75° 122° (ESE) 1,175 2.8 -33.7°
Drops below altitude 10° 04:02:23 10° 43° (NE) 3,135 5.6 -32.5°
Sets 04:05:13 0° 42° (NE) 4,134 6.3 -32.0°
